"read_dt","SO2 (ppb)","flags","PMT voltage (V)","lamp voltage (V)","lamp intensity (Hz)","internal temp (C)","react chamber temp (C)","sample flow (l/min)","pres (mmHg)","SO2 bkg (ppb)","SO2 coefficient"
2013-07-09 00:00:00,1866E-4,5C000000,-0724,0928,11099,027.9,045.4,0.393,727.4,01.19,0.508
2013-07-09 00:01:00,1086E-4,5C000000,-0724,0930,11290,027.9,045.4,0.393,727.3,01.19,0.508
2013-07-09 00:02:00,2085E-4,5C000000,-0724,0929,11139,027.9,045.3,0.393,727.4,01.19,0.508
2013-07-09 00:03:00,1643E-4,5C000000,-0724,0929,11288,027.9,045.4,0.393,727.4,01.19,0.508
2013-07-09 00:04:00,1981E-4,5C000000,-0724,0930,11235,028.0,045.3,0.393,727.4,01.19,0.508
2013-07-09 00:05:00,1651E-4,5C000000,-0724,0929,11303,028.0,045.4,0.393,727.3,01.19,0.508
2013-07-09 00:06:00,2668E-4,5C000000,-0724,0929,11103,027.9,045.4,0.392,727.4,01.19,0.508
2013-07-09 00:07:00,2249E-4,5C000000,-0724,0929,11300,027.9,045.3,0.392,727.4,01.19,0.508
2013-07-09 00:08:00,2873E-4,5C000000,-0724,0929,11261,027.9,045.3,0.392,727.4,01.19,0.508
2013-07-09 00:09:00,2088E-4,5C000000,-0724,0929,11173,028.0,045.3,0.393,727.4,01.19,0.508
2013-07-09 00:10:00,2368E-4,5C000000,-0724,0929,11168,027.9,045.3,0.393,727.3,01.19,0.508
2013-07-09 00:11:00,1484E-4,5C000000,-0724,0930,11224,028.0,045.4,0.393,727.4,01.19,0.508
2013-07-09 00:12:00,2168E-4,5C000000,-0724,0930,11150,028.0,045.4,0.393,727.3,01.19,0.508
2013-07-09 00:13:00,2042E-4,5C000000,-0724,0930,11389,028.0,045.4,0.393,727.2,01.19,0.508
2013-07-09 00:14:00,1852E-4,5C000000,-0724,0930,11304,028.0,045.3,0.393,727.3,01.19,0.508
2013-07-09 00:15:00,1579E-4,5C000000,-0724,0929,11166,028.0,045.3,0.393,727.3,01.19,0.508
2013-07-09 00:16:00,2507E-4,5C000000,-0724,0929,11265,028.0,045.3,0.392,727.3,01.19,0.508
2013-07-09 00:17:00,2643E-4,5C000000,-0724,0930,11326,028.0,045.4,0.392,727.3,01.19,0.508
2013-07-09 00:18:00,2356E-4,5C000000,-0724,0930,11151,028.0,045.4,0.392,727.3,01.19,0.508
2013-07-09 00:19:00,2586E-4,5C000000,-0724,0930,11356,028.0,045.3,0.392,727.4,01.19,0.508
2013-07-09 00:20:00,1508E-4,5C000000,-0724,0929,11070,028.0,045.3,0.393,727.3,01.19,0.508
2013-07-09 00:21:00,2014E-4,5C000000,-0724,0930,11270,028.0,045.3,0.393,727.3,01.19,0.508
2013-07-09 00:22:00,2142E-4,5C000000,-0724,0930,11076,028.0,045.3,0.393,727.4,01.19,0.508
2013-07-09 00:23:00,2394E-4,5C000000,-0724,0930,11318,028.0,045.3,0.393,727.3,01.19,0.508
2013-07-09 00:24:00,3492E-4,5C000000,-0724,0930,11342,028.0,045.3,0.393,727.4,01.19,0.508
2013-07-09 00:25:00,2848E-4,5C000000,-0724,0928,11317,028.0,045.3,0.393,727.4,01.19,0.508
2013-07-09 00:26:00,2404E-4,5C000000,-0724,0930,11208,028.0,045.3,0.393,727.4,01.19,0.508
2013-07-09 00:27:00,1190E-4,5C000000,-0724,0930,11078,028.0,045.4,0.392,727.4,01.19,0.508
2013-07-09 00:28:00,3157E-4,5C000000,-0724,0930,11296,028.0,045.4,0.392,727.4,01.19,0.508
2013-07-09 00:29:00,1293E-4,5C000000,-0724,0929,11343,028.0,045.4,0.392,727.4,01.19,0.508
2013-07-09 00:30:00,3336E-4,5C000000,-0724,0930,11282,028.0,045.4,0.393,727.4,01.19,0.508
2013-07-09 00:31:00,1517E-4,5C000000,-0724,0930,11142,028.0,045.4,0.393,727.3,01.19,0.508
2013-07-09 00:32:00,2530E-4,5C000000,-0724,0929,11225,028.0,045.3,0.393,727.4,01.19,0.508
2013-07-09 00:33:00,2114E-4,5C000000,-0724,0929,11282,028.0,045.3,0.393,727.4,01.19,0.508
2013-07-09 00:34:00,1321E-4,5C000000,-0724,0929,11140,028.0,045.3,0.393,727.4,01.19,0.508
2013-07-09 00:35:00,2599E-4,5C000000,-0724,0930,11294,027.9,045.4,0.393,727.4,01.19,0.508
2013-07-09 00:36:00,2134E-4,5C000000,-0724,0930,11281,027.9,045.4,0.393,727.4,01.19,0.508
2013-07-09 00:37:00,1809E-4,5C000000,-0724,0929,11190,027.9,045.4,0.393,727.3,01.19,0.508
2013-07-09 00:38:00,2174E-4,5C000000,-0724,0929,11002,027.9,045.4,0.393,727.4,01.19,0.508
2013-07-09 00:39:00,2216E-4,5C000000,-0724,0930,11054,027.9,045.3,0.393,727.3,01.19,0.508
2013-07-09 00:40:00,2482E-4,5C000000,-0724,0930,11040,027.8,045.4,0.393,727.4,01.19,0.508
2013-07-09 00:41:00,1491E-4,5C000000,-0724,0929,11320,027.8,045.3,0.393,727.4,01.19,0.508
2013-07-09 00:42:00,1457E-4,5C000000,-0724,0929,11112,027.8,045.4,0.393,727.4,01.19,0.508
2013-07-09 00:43:00,1580E-4,5C000000,-0724,0930,11227,027.8,045.4,0.393,727.4,01.19,0.508
2013-07-09 00:44:00,2971E-4,5C000000,-0724,0929,11298,027.8,045.3,0.393,727.3,01.19,0.508
2013-07-09 00:45:00,1712E-4,5C000000,-0724,0929,11123,027.7,045.4,0.393,727.4,01.19,0.508
2013-07-09 00:46:00,2218E-4,5C000000,-0724,0928,11219,027.7,045.3,0.393,727.4,01.19,0.508
2013-07-09 00:47:00,2582E-4,5C000000,-0724,0929,11138,027.7,045.3,0.393,727.4,01.19,0.508
2013-07-09 00:48:00,2559E-4,5C000000,-0724,0929,11089,027.7,045.4,0.394,727.4,01.19,0.508
2013-07-09 00:49:00,2596E-4,5C000000,-0724,0929,11328,027.6,045.3,0.394,727.4,01.19,0.508
2013-07-09 00:50:00,1457E-4,5C000000,-0724,0930,11341,027.6,045.3,0.394,727.4,01.19,0.508
2013-07-09 00:51:00,2387E-4,5C000000,-0724,0929,11124,027.6,045.3,0.394,727.4,01.19,0.508
2013-07-09 00:52:00,1758E-4,5C000000,-0724,0929,11118,027.6,045.3,0.394,727.4,01.19,0.508
2013-07-09 00:53:00,1530E-4,5C000000,-0724,0929,11343,027.5,045.3,0.394,727.5,01.19,0.508
2013-07-09 00:54:00,1988E-4,5C000000,-0724,0928,11185,027.5,045.3,0.394,727.4,01.19,0.508
2013-07-09 00:55:00,3089E-4,5C000000,-0724,0929,11199,027.5,045.3,0.394,727.5,01.19,0.508
2013-07-09 00:56:00,1855E-4,5C000000,-0724,0930,11314,027.5,045.4,0.394,727.5,01.19,0.508
2013-07-09 00:57:00,2839E-4,5C000000,-0724,0929,11179,027.5,045.3,0.394,727.5,01.19,0.508
2013-07-09 00:58:00,2315E-4,5C000000,-0724,0930,11134,027.5,045.3,0.394,727.5,01.19,0.508
2013-07-09 00:59:00,1762E-4,5C000000,-0724,0928,11293,027.4,045.3,0.394,727.5,01.19,0.508
2013-07-09 01:00:00,8624E-5,5C000000,-0724,0930,11134,027.4,045.3,0.394,727.5,01.19,0.508
2013-07-09 01:01:00,1867E-4,5C000000,-0724,0929,11150,027.4,045.3,0.394,727.5,01.19,0.508
2013-07-09 01:02:00,1939E-4,5C000000,-0724,0928,11205,027.4,045.3,0.394,727.5,01.19,0.508
2013-07-09 01:03:00,1558E-4,5C000000,-0724,0928,11281,027.4,045.3,0.394,727.5,01.19,0.508
2013-07-09 01:04:00,1102E-4,5C000000,-0724,0929,11272,027.4,045.3,0.394,727.6,01.19,0.508
2013-07-09 01:05:00,2016E-4,5C000000,-0724,0928,11290,027.4,045.3,0.394,727.5,01.19,0.508
2013-07-09 01:06:00,1843E-4,5C000000,-0724,0929,11225,027.4,045.3,0.394,727.5,01.19,0.508
2013-07-09 01:07:00,2079E-4,5C000000,-0724,0928,11240,027.4,045.3,0.394,727.5,01.19,0.508
2013-07-09 01:08:00,2308E-4,5C000000,-0724,0928,11063,027.5,045.3,0.394,727.6,01.19,0.508
2013-07-09 01:09:00,1700E-4,5C000000,-0724,0929,11121,027.5,045.3,0.394,727.6,01.19,0.508
2013-07-09 01:10:00,2089E-4,5C000000,-0724,0930,11187,027.5,045.3,0.394,727.5,01.19,0.508
2013-07-09 01:11:00,1807E-4,5C000000,-0724,0929,11199,027.5,045.3,0.394,727.5,01.19,0.508
2013-07-09 01:12:00,2394E-4,5C000000,-0724,0929,11242,027.5,045.3,0.393,727.5,01.19,0.508
2013-07-09 01:13:00,2019E-4,5C000000,-0724,0929,11220,027.5,045.3,0.393,727.5,01.19,0.508
2013-07-09 01:14:00,1917E-4,5C000000,-0724,0930,11213,027.5,045.3,0.394,727.6,01.19,0.508
2013-07-09 01:15:00,8386E-5,5C000000,-0724,0930,11238,027.5,045.3,0.394,727.4,01.19,0.508
2013-07-09 01:16:00,2088E-4,5C000000,-0724,0929,11268,027.6,045.3,0.394,727.5,01.19,0.508
2013-07-09 01:17:00,2703E-4,5C000000,-0724,0929,11185,027.6,045.3,0.394,727.5,01.19,0.508
2013-07-09 01:18:00,2447E-4,5C000000,-0724,0929,11344,027.6,045.4,0.393,727.5,01.19,0.508
2013-07-09 01:19:00,1755E-4,5C000000,-0724,0929,11239,027.6,045.3,0.393,727.5,01.19,0.508
2013-07-09 01:20:00,2132E-4,5C000000,-0724,0929,11341,027.6,045.3,0.394,727.6,01.19,0.508
2013-07-09 01:21:00,2338E-4,5C000000,-0724,0929,11130,027.6,045.3,0.394,727.5,01.19,0.508
2013-07-09 01:22:00,1580E-4,5C000000,-0724,0929,11294,027.7,045.3,0.394,727.6,01.19,0.508
2013-07-09 01:23:00,2389E-4,5C000000,-0724,0929,11283,027.7,045.3,0.394,727.6,01.19,0.508
2013-07-09 01:24:00,1683E-4,5C000000,-0724,0930,11232,027.7,045.3,0.393,727.6,01.19,0.508
2013-07-09 01:25:00,1673E-4,5C000000,-0724,0930,11042,027.7,045.3,0.393,727.6,01.19,0.508
2013-07-09 01:26:00,2919E-4,5C000000,-0724,0928,11177,027.7,045.4,0.393,727.6,01.19,0.508
2013-07-09 01:27:00,1631E-4,5C000000,-0724,0929,11248,027.7,045.3,0.393,727.6,01.19,0.508
2013-07-09 01:28:00,2781E-4,5C000000,-0724,0929,11306,027.8,045.3,0.394,727.6,01.19,0.508
2013-07-09 01:29:00,2413E-4,5C000000,-0724,0930,11303,027.8,045.4,0.394,727.6,01.19,0.508
2013-07-09 01:30:00,2343E-4,5C000000,-0724,0930,11279,027.8,045.3,0.393,727.6,01.19,0.508
2013-07-09 01:31:00,2043E-4,5C000000,-0724,0929,11270,027.8,045.4,0.393,727.6,01.19,0.508
2013-07-09 01:32:00,2587E-4,5C000000,-0724,0931,11305,027.8,045.4,0.393,727.6,01.19,0.508
2013-07-09 01:33:00,2152E-4,5C000000,-0724,0929,11382,027.8,045.4,0.393,727.6,01.19,0.508
2013-07-09 01:34:00,2928E-4,5C000000,-0724,0930,11234,027.9,045.4,0.393,727.6,01.19,0.508
2013-07-09 01:35:00,1604E-4,5C000000,-0724,0930,11127,027.9,045.3,0.393,727.6,01.19,0.508
2013-07-09 01:36:00,1632E-4,5C000000,-0724,0930,11251,027.9,045.4,0.393,727.6,01.19,0.508
2013-07-09 01:37:00,1069E-4,5C000000,-0724,0929,11196,027.9,045.4,0.393,727.6,01.19,0.508
2013-07-09 01:38:00,2181E-4,5C000000,-0724,0930,11145,027.9,045.4,0.393,727.6,01.19,0.508
2013-07-09 01:39:00,2268E-4,5C000000,-0724,0929,11265,028.0,045.4,0.393,727.6,01.19,0.508
2013-07-09 01:40:00,1276E-4,5C000000,-0724,0931,11288,028.0,045.4,0.393,727.6,01.19,0.508
2013-07-09 01:41:00,3004E-4,5C000000,-0724,0930,11267,028.0,045.3,0.393,727.6,01.19,0.508
2013-07-09 01:42:00,2282E-4,5C000000,-0724,0930,11294,028.0,045.3,0.393,727.6,01.19,0.508
2013-07-09 01:43:00,3102E-4,5C000000,-0724,0929,11239,028.0,045.3,0.393,727.6,01.19,0.508
2013-07-09 01:44:00,1274E-4,5C000000,-0724,0930,11298,028.0,045.3,0.393,727.6,01.19,0.508
2013-07-09 01:45:00,2002E-4,5C000000,-0724,0930,11202,028.0,045.4,0.393,727.6,01.19,0.508
2013-07-09 01:46:00,2515E-4,5C000000,-0724,0930,11286,028.0,045.3,0.393,727.7,01.19,0.508
2013-07-09 01:47:00,2188E-4,5C000000,-0724,0930,11237,028.0,045.3,0.393,727.6,01.19,0.508
2013-07-09 01:48:00,9266E-5,5C000000,-0724,0931,11278,028.1,045.3,0.392,727.6,01.19,0.508
2013-07-09 01:49:00,1615E-4,5C000000,-0724,0930,11120,028.1,045.3,0.392,727.5,01.19,0.508
2013-07-09 01:50:00,1855E-4,5C000000,-0724,0930,11343,028.1,045.4,0.392,727.6,01.19,0.508
2013-07-09 01:51:00,2147E-4,5C000000,-0724,0930,11296,028.1,045.3,0.392,727.7,01.19,0.508
2013-07-09 01:52:00,2329E-4,5C000000,-0724,0930,11330,028.1,045.3,0.393,727.6,01.19,0.508
2013-07-09 01:53:00,2447E-4,5C000000,-0724,0931,10936,028.1,045.3,0.393,727.6,01.19,0.508
2013-07-09 01:54:00,2611E-4,5C000000,-0724,0931,11168,028.1,045.4,0.393,727.6,01.19,0.508
2013-07-09 01:55:00,1916E-4,5C000000,-0724,0930,11216,028.2,045.4,0.393,727.7,01.19,0.508
2013-07-09 01:56:00,1936E-4,5C000000,-0724,0930,11124,028.2,045.4,0.393,727.6,01.19,0.508
2013-07-09 01:57:00,2565E-4,5C000000,-0724,0930,11141,028.2,045.4,0.393,727.6,01.19,0.508
2013-07-09 01:58:00,1995E-4,5C000000,-0724,0930,11265,028.2,045.4,0.392,727.6,01.19,0.508
2013-07-09 01:59:00,1909E-4,5C000000,-0724,0931,11239,028.2,045.4,0.392,727.6,01.19,0.508
2013-07-09 02:00:00,2373E-4,5C000000,-0724,0931,11039,028.2,045.4,0.392,727.7,01.19,0.508
2013-07-09 02:01:00,2418E-4,5C000000,-0724,0931,11159,028.3,045.4,0.392,727.7,01.19,0.508
2013-07-09 02:02:00,3170E-4,5C000000,-0724,0930,11193,028.2,045.4,0.392,727.7,01.19,0.508
2013-07-09 02:03:00,1721E-4,5C000000,-0724,0930,11308,028.3,045.4,0.392,727.7,01.19,0.508
2013-07-09 02:04:00,2590E-4,5C000000,-0724,0931,11207,028.3,045.4,0.392,727.7,01.19,0.508
2013-07-09 02:05:00,2829E-4,5C000000,-0724,0930,11219,028.3,045.4,0.393,727.7,01.19,0.508
2013-07-09 02:06:00,1402E-4,5C000000,-0724,0930,11286,028.3,045.3,0.393,727.7,01.19,0.508
2013-07-09 02:07:00,2453E-4,5C000000,-0724,0930,11193,028.3,045.4,0.393,727.8,01.19,0.508
2013-07-09 02:08:00,1865E-4,5C000000,-0724,0931,11297,028.3,045.4,0.393,727.8,01.19,0.508
2013-07-09 02:09:00,2350E-4,5C000000,-0724,0931,11214,028.3,045.4,0.392,727.7,01.19,0.508
2013-07-09 02:10:00,1318E-4,5C000000,-0724,0930,11283,028.3,045.3,0.392,727.8,01.19,0.508
2013-07-09 02:11:00,3333E-4,5C000000,-0724,0931,11342,028.3,045.3,0.392,727.8,01.19,0.508
2013-07-09 02:12:00,2771E-4,5C000000,-0724,0930,11227,028.4,045.4,0.392,727.8,01.19,0.508
2013-07-09 02:13:00,2541E-4,5C000000,-0724,0931,11158,028.4,045.4,0.392,727.8,01.19,0.508
2013-07-09 02:14:00,2107E-4,5C000000,-0724,0930,11161,028.5,045.4,0.392,727.8,01.19,0.508
2013-07-09 02:15:00,1723E-4,5C000000,-0724,0930,11252,028.5,045.4,0.392,727.7,01.19,0.508
2013-07-09 02:16:00,1947E-4,5C000000,-0724,0930,11301,028.5,045.4,0.392,727.7,01.19,0.508
2013-07-09 02:17:00,1545E-4,5C000000,-0724,0932,11140,028.5,045.4,0.392,727.8,01.19,0.508
2013-07-09 02:18:00,2526E-4,5C000000,-0724,0931,11201,028.5,045.4,0.392,727.8,01.19,0.508
2013-07-09 02:19:00,2253E-4,5C000000,-0724,0930,11172,028.5,045.4,0.391,727.7,01.19,0.508
2013-07-09 02:20:00,2587E-4,5C000000,-0724,0930,11042,028.5,045.3,0.391,727.7,01.19,0.508
2013-07-09 02:21:00,2516E-4,5C000000,-0724,0931,11298,028.5,045.4,0.391,727.8,01.19,0.508
2013-07-09 02:22:00,1498E-4,5C000000,-0724,0931,11283,028.5,045.4,0.391,727.7,01.19,0.508
2013-07-09 02:23:00,1934E-4,5C000000,-0724,0931,11241,028.5,045.4,0.391,727.7,01.19,0.508
2013-07-09 02:24:00,2554E-4,5C000000,-0724,0931,11232,028.5,045.4,0.391,727.7,01.19,0.508
2013-07-09 02:25:00,2680E-4,5C000000,-0724,0931,11346,028.5,045.4,0.391,727.7,01.19,0.508
2013-07-09 02:26:00,1714E-4,5C000000,-0724,0932,11336,028.6,045.4,0.391,727.7,01.19,0.508
2013-07-09 02:27:00,1912E-4,5C000000,-0724,0931,11188,028.5,045.4,0.391,727.7,01.19,0.508
2013-07-09 02:28:00,2157E-4,5C000000,-0724,0931,11280,028.6,045.4,0.391,727.7,01.19,0.508
2013-07-09 02:29:00,2560E-4,5C000000,-0724,0930,11182,028.5,045.4,0.391,727.7,01.19,0.508
2013-07-09 02:30:00,1940E-4,5C000000,-0724,0930,11252,028.6,045.4,0.392,727.7,01.19,0.508
2013-07-09 02:31:00,1606E-4,5C000000,-0724,0931,11069,028.6,045.4,0.392,727.7,01.19,0.508
2013-07-09 02:32:00,1897E-4,5C000000,-0724,0931,11210,028.6,045.4,0.392,727.6,01.19,0.508
2013-07-09 02:33:00,2554E-4,5C000000,-0724,0931,11359,028.6,045.4,0.392,727.7,01.19,0.508
2013-07-09 02:34:00,2961E-4,5C000000,-0724,0931,11363,028.6,045.4,0.392,727.8,01.19,0.508
2013-07-09 02:35:00,3546E-4,5C000000,-0724,0930,11106,028.6,045.4,0.392,727.8,01.19,0.508
2013-07-09 02:36:00,2790E-4,5C000000,-0724,0931,11225,028.6,045.4,0.392,727.7,01.19,0.508
2013-07-09 02:37:00,1285E-4,5C000000,-0724,0931,11141,028.6,045.4,0.392,727.7,01.19,0.508
2013-07-09 02:38:00,1581E-4,5C000000,-0724,0930,11105,028.6,045.4,0.392,727.7,01.19,0.508
2013-07-09 02:39:00,2308E-4,5C000000,-0724,0931,11155,028.6,045.4,0.392,727.7,01.19,0.508
2013-07-09 02:40:00,1292E-4,5C000000,-0724,0931,11209,028.7,045.4,0.392,727.6,01.19,0.508
2013-07-09 02:41:00,3041E-4,5C000000,-0724,0930,11321,028.7,045.4,0.392,727.6,01.19,0.508
2013-07-09 02:42:00,2043E-4,5C000000,-0724,0931,11290,028.7,045.4,0.392,727.7,01.19,0.508
2013-07-09 02:43:00,1343E-4,5C000000,-0724,0930,11145,028.7,045.4,0.392,727.7,01.19,0.508
2013-07-09 02:44:00,1691E-4,5C000000,-0724,0930,11153,028.7,045.4,0.392,727.7,01.19,0.508
2013-07-09 02:45:00,2502E-4,5C000000,-0724,0931,11313,028.7,045.4,0.391,727.7,01.19,0.508
2013-07-09 02:46:00,2326E-4,5C000000,-0724,0930,11251,028.7,045.4,0.391,727.7,01.19,0.508
2013-07-09 02:47:00,1573E-4,5C000000,-0724,0931,11278,028.7,045.4,0.391,727.7,01.19,0.508
2013-07-09 02:48:00,1464E-4,5C000000,-0724,0931,11196,028.7,045.4,0.391,727.7,01.19,0.508
2013-07-09 02:49:00,2677E-4,5C000000,-0724,0932,11264,028.7,045.4,0.391,727.7,01.19,0.508
2013-07-09 02:50:00,2190E-4,5C000000,-0724,0932,11185,028.7,045.4,0.391,727.7,01.19,0.508
2013-07-09 02:51:00,2648E-4,5C000000,-0724,0931,11217,028.7,045.4,0.391,727.7,01.19,0.508
2013-07-09 02:52:00,2115E-4,5C000000,-0724,0930,11310,028.8,045.4,0.391,727.7,01.19,0.508
2013-07-09 02:53:00,2290E-4,5C000000,-0724,0930,11191,028.8,045.4,0.391,727.7,01.19,0.508
2013-07-09 02:54:00,1884E-4,5C000000,-0724,0931,11171,028.8,045.4,0.391,727.7,01.19,0.508
2013-07-09 02:55:00,2205E-4,5C000000,-0724,0931,11220,028.8,045.4,0.392,727.8,01.19,0.508
2013-07-09 02:56:00,2784E-4,5C000000,-0724,0931,11260,028.8,045.4,0.392,727.8,01.19,0.508
2013-07-09 02:57:00,3003E-4,5C000000,-0724,0930,11274,028.8,045.4,0.392,727.8,01.19,0.508
2013-07-09 02:58:00,1654E-4,5C000000,-0724,0930,11236,028.8,045.4,0.392,727.8,01.19,0.508
2013-07-09 02:59:00,2179E-4,5C000000,-0724,0930,11166,028.8,045.4,0.392,727.8,01.19,0.508
2013-07-09 03:00:00,1752E-4,5C000000,-0724,0931,11280,028.8,045.4,0.392,727.8,01.19,0.508
2013-07-09 03:01:00,2234E-4,5C000000,-0724,0931,11228,028.8,045.4,0.392,727.8,01.19,0.508
2013-07-09 03:02:00,2972E-4,5C000000,-0724,0931,11248,028.8,045.4,0.392,727.8,01.19,0.508
2013-07-09 03:03:00,1475E-4,5C000000,-0724,0930,11130,028.9,045.4,0.391,727.8,01.19,0.508
2013-07-09 03:04:00,2183E-4,5C000000,-0724,0930,11292,028.9,045.4,0.391,727.8,01.19,0.508
2013-07-09 03:05:00,1621E-4,5C000000,-0724,0931,11267,028.9,045.4,0.391,727.8,01.19,0.508
2013-07-09 03:06:00,2671E-4,5C000000,-0724,0931,11247,028.9,045.4,0.391,727.8,01.19,0.508
2013-07-09 03:07:00,1996E-4,5C000000,-0724,0931,11172,028.9,045.4,0.391,727.8,01.19,0.508
2013-07-09 03:08:00,1873E-4,5C000000,-0724,0930,11330,028.9,045.4,0.391,727.8,01.19,0.508
2013-07-09 03:09:00,2041E-4,5C000000,-0724,0930,11070,028.9,045.4,0.391,727.8,01.19,0.508
2013-07-09 03:10:00,2680E-4,5C000000,-0724,0931,11326,028.9,045.4,0.391,727.9,01.19,0.508
2013-07-09 03:11:00,1724E-4,5C000000,-0724,0931,11211,028.9,045.4,0.391,727.9,01.19,0.508
2013-07-09 03:12:00,2837E-4,5C000000,-0724,0931,11100,028.9,045.4,0.391,727.9,01.19,0.508
2013-07-09 03:13:00,1892E-4,5C000000,-0724,0931,11093,028.9,045.4,0.391,727.9,01.19,0.508
2013-07-09 03:14:00,2000E-4,5C000000,-0724,0930,11203,028.9,045.4,0.391,728.0,01.19,0.508
2013-07-09 03:15:00,1893E-4,5C000000,-0724,0931,11227,029.0,045.4,0.391,728.0,01.19,0.508
2013-07-09 03:16:00,1882E-4,5C000000,-0724,0931,11220,029.0,045.4,0.391,728.0,01.19,0.508
2013-07-09 03:17:00,2099E-4,5C000000,-0724,0932,11132,029.0,045.4,0.391,728.0,01.19,0.508
2013-07-09 03:18:00,1416E-4,5C000000,-0724,0932,11254,029.0,045.4,0.391,728.0,01.19,0.508
2013-07-09 03:19:00,2070E-4,5C000000,-0724,0930,11279,029.0,045.4,0.391,728.0,01.19,0.508
2013-07-09 03:20:00,2074E-4,5C000000,-0724,0931,11285,029.0,045.4,0.391,728.0,01.19,0.508
2013-07-09 03:21:00,1963E-4,5C000000,-0724,0931,11174,029.0,045.4,0.391,728.0,01.19,0.508
2013-07-09 03:22:00,3120E-4,5C000000,-0724,0930,11224,029.0,045.4,0.391,728.0,01.19,0.508
2013-07-09 03:23:00,2089E-4,5C000000,-0724,0930,11080,029.0,045.4,0.391,728.0,01.19,0.508
2013-07-09 03:24:00,2184E-4,5C000000,-0724,0932,11175,029.0,045.4,0.391,728.0,01.19,0.508
2013-07-09 03:25:00,1574E-4,5C000000,-0724,0931,11222,029.0,045.4,0.391,728.0,01.19,0.508
2013-07-09 03:26:00,2692E-4,5C000000,-0724,0931,11201,029.0,045.4,0.391,728.0,01.19,0.508
2013-07-09 03:27:00,1358E-4,5C000000,-0724,0932,11209,029.0,045.4,0.391,728.0,01.19,0.508
2013-07-09 03:28:00,1892E-4,5C000000,-0724,0931,11257,029.0,045.4,0.391,728.0,01.19,0.508
2013-07-09 03:29:00,2502E-4,5C000000,-0724,0931,11325,029.0,045.4,0.391,728.0,01.19,0.508
2013-07-09 03:30:00,1090E-4,5C000000,-0724,0931,11196,029.1,045.4,0.391,728.0,01.19,0.508
2013-07-09 03:31:00,1612E-4,5C000000,-0724,0931,11133,029.1,045.4,0.391,728.1,01.19,0.508
2013-07-09 03:32:00,2572E-4,5C000000,-0724,0931,11319,029.1,045.4,0.391,728.0,01.19,0.508
2013-07-09 03:33:00,2506E-4,5C000000,-0724,0931,11276,029.1,045.4,0.391,728.0,01.19,0.508
2013-07-09 03:34:00,1517E-4,5C000000,-0724,0932,11210,029.1,045.4,0.391,728.0,01.19,0.508
2013-07-09 03:35:00,1937E-4,5C000000,-0724,0931,11184,029.1,045.4,0.391,728.0,01.19,0.508
2013-07-09 03:36:00,2229E-4,5C000000,-0724,0930,11144,029.1,045.4,0.391,728.1,01.19,0.508
2013-07-09 03:37:00,1240E-4,5C000000,-0724,0932,11270,029.1,045.4,0.391,728.1,01.19,0.508
2013-07-09 03:38:00,2695E-4,5C000000,-0724,0931,11225,029.1,045.4,0.391,728.0,01.19,0.508
2013-07-09 03:39:00,2020E-4,5C000000,-0724,0931,11246,029.1,045.4,0.391,728.0,01.19,0.508
2013-07-09 03:40:00,2191E-4,5C000000,-0724,0931,11232,029.1,045.4,0.391,728.0,01.19,0.508
2013-07-09 03:41:00,1790E-4,5C000000,-0724,0932,11161,029.1,045.4,0.391,728.1,01.19,0.508
2013-07-09 03:42:00,2061E-4,5C000000,-0724,0932,11063,029.1,045.4,0.391,728.1,01.19,0.508
2013-07-09 03:43:00,1686E-4,5C000000,-0724,0930,11200,029.1,045.4,0.391,728.0,01.19,0.508
2013-07-09 03:44:00,2440E-4,5C000000,-0724,0931,11270,029.1,045.4,0.391,728.1,01.19,0.508
2013-07-09 03:45:00,2688E-4,5C000000,-0724,0931,11100,029.1,045.4,0.391,728.1,01.19,0.508
2013-07-09 03:46:00,1046E-4,5C000000,-0724,0931,11235,029.2,045.4,0.391,728.1,01.19,0.508
2013-07-09 03:47:00,3437E-4,5C000000,-0724,0931,11281,029.1,045.4,0.391,728.1,01.19,0.508
2013-07-09 03:48:00,2200E-4,5C000000,-0724,0931,11189,029.2,045.4,0.391,728.2,01.19,0.508
2013-07-09 03:49:00,2307E-4,5C000000,-0724,0932,11160,029.2,045.4,0.391,728.1,01.19,0.508
2013-07-09 03:50:00,2661E-4,5C000000,-0724,0932,11261,029.2,045.4,0.391,728.1,01.19,0.508
2013-07-09 03:51:00,2338E-4,5C000000,-0724,0931,11263,029.2,045.4,0.391,728.1,01.19,0.508
2013-07-09 03:52:00,1890E-4,5C000000,-0724,0931,11127,029.2,045.4,0.391,728.2,01.19,0.508
2013-07-09 03:53:00,2331E-4,5C000000,-0724,0932,11253,029.2,045.4,0.391,728.1,01.19,0.508
2013-07-09 03:54:00,2226E-4,5C000000,-0724,0931,11260,029.2,045.4,0.390,728.2,01.19,0.508
2013-07-09 03:55:00,1919E-4,5C000000,-0724,0931,11180,029.2,045.4,0.390,728.2,01.19,0.508
2013-07-09 03:56:00,1963E-4,5C000000,-0724,0931,11125,029.2,045.4,0.390,728.2,01.19,0.508
2013-07-09 03:57:00,2115E-4,5C000000,-0724,0931,10984,029.2,045.4,0.390,728.2,01.19,0.508
2013-07-09 03:58:00,2465E-4,5C000000,-0724,0931,11054,029.2,045.4,0.390,728.2,01.19,0.508
2013-07-09 03:59:00,3194E-4,5C000000,-0724,0931,11257,029.2,045.4,0.390,728.2,01.19,0.508
2013-07-09 04:00:00,3463E-4,5C000000,-0724,0930,11117,029.2,045.4,0.391,728.3,01.19,0.508
2013-07-09 04:01:00,2873E-4,5C000000,-0724,0932,11258,029.2,045.4,0.391,728.2,01.19,0.508
2013-07-09 04:02:00,2248E-4,5C000000,-0724,0931,11156,029.2,045.4,0.391,728.2,01.19,0.508
2013-07-09 04:03:00,2685E-4,5C000000,-0724,0932,11212,029.2,045.4,0.391,728.3,01.19,0.508
2013-07-09 04:04:00,3004E-4,5C000000,-0724,0931,11130,029.2,045.4,0.391,728.2,01.19,0.508
2013-07-09 04:05:00,2395E-4,5C000000,-0724,0931,11273,029.2,045.4,0.391,728.2,01.19,0.508
2013-07-09 04:06:00,2580E-4,5C000000,-0724,0932,11185,029.2,045.4,0.391,728.3,01.19,0.508
2013-07-09 04:07:00,1840E-4,5C000000,-0724,0932,11394,029.3,045.4,0.391,728.2,01.19,0.508
2013-07-09 04:08:00,3026E-4,5C000000,-0724,0931,11108,029.3,045.4,0.391,728.2,01.19,0.508
2013-07-09 04:09:00,2017E-4,5C000000,-0724,0931,11210,029.3,045.4,0.391,728.3,01.19,0.508
2013-07-09 04:10:00,3429E-4,5C000000,-0724,0931,11062,029.3,045.4,0.390,728.3,01.19,0.508
2013-07-09 04:11:00,2955E-4,5C000000,-0724,0931,11084,029.3,045.4,0.390,728.2,01.19,0.508
2013-07-09 04:12:00,2002E-4,5C000000,-0724,0931,11167,029.3,045.4,0.390,728.2,01.19,0.508
2013-07-09 04:13:00,1442E-4,5C000000,-0724,0932,11078,029.3,045.4,0.390,728.2,01.19,0.508
2013-07-09 04:14:00,2024E-4,5C000000,-0724,0931,11263,029.3,045.4,0.390,728.1,01.19,0.508
2013-07-09 04:15:00,3036E-4,5C000000,-0724,0931,11271,029.3,045.4,0.390,728.1,01.19,0.508
2013-07-09 04:16:00,2389E-4,5C000000,-0724,0932,10999,029.3,045.4,0.390,728.2,01.19,0.508
2013-07-09 04:17:00,2952E-4,5C000000,-0724,0932,11065,029.3,045.4,0.391,728.2,01.19,0.508
2013-07-09 04:18:00,1701E-4,5C000000,-0724,0931,11025,029.3,045.4,0.391,728.1,01.19,0.508
2013-07-09 04:19:00,2283E-4,5C000000,-0724,0931,11222,029.3,045.4,0.391,728.2,01.19,0.508
2013-07-09 04:20:00,2718E-4,5C000000,-0724,0931,11200,029.3,045.4,0.391,728.2,01.19,0.508